GW0587 Weather Reports


Display with metric or nautical units.
time (UTC)temp
F
wind
direction
speed
MPH
gust
MPH
rain 1hr
in
rain 24hr
in
rain mn
in
humidity
%
barometer
mb
20260905024610 90 177 0.0 2.0 0.00 0.00 0.00 59 1014.1
20260905023057 89 0 0.0 4.0 0.00 0.00 0.00 60 1014.0
20260905021548 88 142 1.0 4.0 0.00 0.00 0.00 62 1014.1
20260905020059 87 0 0.0 0.0 0.00 0.00 0.00 64 1013.8
20260905014552 88 0 0.0 0.0 0.00 0.00 0.00 63 1013.5
20260905013048 88 0 0.0 0.0 0.00 0.00 0.00 61 1013.5
20260905011552 89 0 0.0 0.0 0.00 0.00 0.00 60 1013.7
20260905010108 90 0 0.0 0.0 0.00 0.00 0.00 58 1013.5
20260905004556 92 0 0.0 0.0 0.00 0.00 0.00 57 1013.4
20260905003049 93 0 0.0 1.0 0.00 0.00 0.00 54 1013.3
20260905001557 94 0 0.0 1.0 0.00 0.00 0.00 54 1013.2
20260905000054 95 0 0.0 1.0 0.00 0.00 0.00 51 1013.1
20260904234553 96 0 0.0 0.0 0.00 0.00 0.00 50 1012.9
20260904233047 97 327 0.0 3.0 0.00 0.00 0.00 47 1012.8
20260904231602 97 0 0.0 3.0 0.00 0.00 0.00 46 1012.8
20260904230057 98 0 0.0 6.0 0.00 0.00 0.00 45 1012.8
20260904224554 98 0 0.0 3.0 0.00 0.00 0.00 46 1012.8
20260904223052 98 0 0.0 0.0 0.00 0.00 0.00 45 1012.8
20260904221555 97 0 0.0 0.0 0.00 0.00 0.00 44 1012.8
20260904214551 98 0 1.0 6.0 0.00 0.00 0.00 44 1012.8
20260904213100 98 360 2.0 8.0 0.00 0.00 0.00 44 1013.0
20260904211558 98 0 0.0 4.0 0.00 0.00 0.00 44 1013.1
20260904210059 98 272 1.0 6.0 0.00 0.00 0.00 46 1013.3
20260904204557 98 0 0.0 4.0 0.00 0.00 0.00 46 1013.6
20260904203058 98 0 0.0 2.0 0.00 0.00 0.00 47 1013.9
20260904201555 99 350 0.0 6.0 0.00 0.00 0.00 46 1014.0
20260904200106 101 344 1.0 6.0 0.00 0.00 0.00 45 1014.4
20260904194558 100 153 2.0 4.0 0.00 0.00 0.00 44 1014.5
20260904193050 99 0 0.0 6.0 0.00 0.00 0.00 45 1014.9
20260904191546 99 0 0.0 5.0 0.00 0.00 0.00 47 1015.2
20260904190058 98 0 0.0 4.0 0.00 0.00 0.00 48 1015.1
20260904184548 97 63 2.0 6.0 0.00 0.00 0.00 50 1015.3
20260904183049 97 121 2.0 7.0 0.00 0.00 0.00 50 1015.5
20260904181558 97 0 1.0 6.0 0.00 0.00 0.00 50 1015.9
20260904180055 97 124 1.0 4.0 0.00 0.00 0.00 50 1016.1
20260904174607 97 0 0.0 4.0 0.00 0.00 0.00 51 1016.1
20260904173059 97 330 1.0 6.0 0.00 0.00 0.00 52 1016.1
20260904171555 97 0 1.0 4.0 0.00 0.00 0.00 52 1016.5
20260904170054 96 0 0.0 5.0 0.00 0.00 0.00 53 1016.7
20260904164549 96 28 1.0 5.0 0.00 0.00 0.00 55 1016.8
20260904163047 95 49 1.0 8.0 0.00 0.00 0.00 54 1016.6
20260904161602 96 0 1.0 3.0 0.00 0.00 0.00 53 1016.7
20260904160054 95 271 0.0 3.0 0.00 0.00 0.00 55 1016.8
20260904154551 94 70 0.0 3.0 0.00 0.00 0.00 57 1017.0
20260904153049 94 285 1.0 4.0 0.00 0.00 0.00 57 1016.9
20260904151556 93 0 0.0 3.0 0.00 0.00 0.00 59 1016.8
20260904150051 91 352 1.0 6.0 0.00 0.00 0.00 60 1016.6
20260904144550 91 0 0.0 4.0 0.00 0.00 0.00 64 1016.6
20260904134615 87 0 0.0 0.0 0.00 0.00 0.00 71 1016.6
20260904133054 85 0 0.0 0.0 0.00 0.00 0.00 73 1016.6
20260904131548 84 0 0.0 0.0 0.00 0.00 0.00 75 1016.5
20260904130055 82 0 0.0 0.0 0.00 0.00 0.00 80 1016.4
20260904124552 80 0 0.0 0.0 0.00 0.00 0.00 84 1016.3
20260904123054 78 0 0.0 0.0 0.00 0.00 0.00 87 1016.2
20260904121552 77 0 0.0 0.0 0.00 0.00 0.00 88 1016.2
20260904120055 76 0 0.0 0.0 0.00 0.00 0.00 89 1016.0
20260904114549 76 0 0.0 0.0 0.00 0.00 0.00 89 1015.8
20260904113048 76 0 0.0 0.0 0.00 0.00 0.00 88 1015.7
20260904111549 76 0 0.0 0.0 0.00 0.00 0.00 88 1015.7
20260904110059 76 0 0.0 0.0 0.00 0.00 0.00 88 1015.5
20260904104554 77 0 0.0 0.0 0.00 0.00 0.00 88 1015.4
20260904103049 77 0 0.0 0.0 0.00 0.00 0.00 88 1015.2
20260904101548 77 0 0.0 0.0 0.00 0.00 0.00 87 1015.3
20260904100104 77 0 0.0 0.0 0.00 0.00 0.00 87 1015.3
20260904094600 77 0 0.0 0.0 0.00 0.00 0.00 87 1015.2
20260904093049 77 0 0.0 0.0 0.00 0.00 0.00 86 1015.2
20260904091555 77 0 0.0 0.0 0.00 0.00 0.00 86 1015.0
20260904090104 78 0 0.0 0.0 0.00 0.00 0.00 86 1014.9
20260904084602 78 0 0.0 0.0 0.00 0.00 0.00 85 1014.7
20260904083142 78 0 0.0 0.0 0.00 0.00 0.00 85 1014.6
20260904081549 78 0 0.0 0.0 0.00 0.00 0.00 85 1014.9
20260904080047 78 0 0.0 0.0 0.00 0.00 0.00 85 1014.7
20260904074556 79 0 0.0 0.0 0.00 0.00 0.00 85 1014.6
20260904073059 79 0 0.0 0.0 0.00 0.00 0.00 84 1014.5
20260904071611 79 0 0.0 0.0 0.00 0.00 0.00 84 1014.7
20260904070116 79 0 0.0 0.0 0.00 0.00 0.00 84 1014.6
20260904064555 79 0 0.0 0.0 0.00 0.00 0.00 83 1014.7
20260904063101 80 0 0.0 0.0 0.00 0.00 0.00 82 1014.8
20260904061549 80 0 0.0 0.0 0.00 0.00 0.00 81 1014.8
20260904060057 80 0 0.0 0.0 0.00 0.00 0.00 81 1014.9
20260904054551 80 0 0.0 0.0 0.00 0.00 0.00 81 1014.7
20260904053104 81 0 0.0 0.0 0.00 0.00 0.00 81 1014.9
20260904051550 81 0 0.0 0.0 0.00 0.00 0.00 80 1014.7
20260904050047 81 0 0.0 0.0 0.00 0.00 0.00 80 1014.9
20260904044553 81 0 0.0 0.0 0.00 0.00 0.00 79 1014.6
20260904043058 81 0 0.0 0.0 0.00 0.00 0.00 80 1014.8
20260904041554 81 0 0.0 0.0 0.00 0.00 0.00 80 1015.0
20260904040103 81 0 0.0 0.0 0.00 0.00 0.00 81 1014.9
20260904034549 82 0 0.0 0.0 0.00 0.00 0.00 81 1014.9
20260904033057 82 0 0.0 0.0 0.00 0.00 0.00 80 1014.9
20260904031557 82 0 0.0 0.0 0.00 0.00 0.00 82 1015.2
20260904030050 81 0 0.0 0.0 0.00 0.00 0.00 81 1015.2